Wind_Speed
30 28 25 22 20 24 27 29 27 25 27 33 37 39 43 58 68 75 73 71 70 69 66 63 59 56 52 48 45 42 39 35 33 35 26 25 23 21 20 18 14 13 15 16 18
30 29 26 21 18 21 24 25 26 25 25 30 36 40 39 45 58 68 72 72 69 69 67 63 61 57 53 50 45 42 37 33 35 33 29 25 22 22 20 18 16 16 18 18 19
30 28 24 20 6 6 12 18 21 22 24 23 33 36 41 40 47 53 68 71 68 67 67 64 62 59 55 50 46 42 35 33 34 32 28 26 27 23 22 20 20 19 20 20 20
29 29 24 21 17 12 7 9 15 20 23 24 25 33 37 41 43 49 58 66 69 66 64 65 63 60 56 51 47 42 37 35 35 32 29 28 27 26 23 21 22 21 23 23 22
23 28 23 20 17 13 8 5 7 12 17 22 25 29 34 39 42 42 49 59 66 65 62 63 61 58 55 51 48 43 39 37 37 34 31 29 28 26 23 23 23 23 24 24 23
29 24 22 20 21 22 14 10 9 10 16 21 25 27 28 34 40 39 43 50 58 61 61 59 59 58 54 52 50 44 39 38 37 35 33 31 29 25 24 26 25 24 23 24 23
30 25 21 21 23 21 19 15 12 19 14 22 25 27 27 28 35 38 39 43 50 56 56 56 56 57 56 54 51 46 41 40 38 36 33 31 28 24 25 27 26 24 22 24 24
29 31 20 19 22 25 27 18 13 6 10 16 21 24 24 30 34 38 38 40 43 53 55 52 54 54 55 56 51 46 43 40 37 35 32 31 26 26 26 26 26 24 22 23 24
34 30 31 21 22 24 28 27 11 10 2 15 20 25 24 31 33 39 39 41 41 43 49 52 52 51 55 52 49 46 42 38 35 34 33 32 28 28 28 28 26 24 23 23 24
39 32 31 27 23 25 28 27 27 19 10 2 19 20 23 31 34 38 40 39 40 42 45 50 51 50 50 47 46 43 39 35 33 33 31 29 26 25 24 23 23 22 22 23 25
39 33 28 28 25 29 31 30 29 27 24 12 20 21 20 28 33 38 40 39 38 39 41 45 47 47 44 43 42 39 39 36 34 31 28 25 22 21 22 21 21 22 21 23 25
38 33 29 28 28 28 25 24 27 30 29 16 24 18 27 27 31 32 34 36 33 32 35 38 40 41 42 42 40 39 38 34 31 28 24 21 20 21 19 20 22 22 21 24 25
36 32 30 29 28 27 26 26 27 28 30 25 13 19 32 28 30 34 36 36 33 30 32 33 36 38 40 40 38 38 35 31 27 25 23 20 19 21 19 20 21 23 24 25 27
37 33 27 28 30 26 25 26 24 24 28 29 28 24 21 21 25 31 34 34 32 31 31 33 35 36 37 37 36 35 30 26 24 24 22 20 20 21 21 21 22 25 26 28 30
36 37 26 26 27 25 25 23 21 22 26 27 24 24 25 22 20 24 28 34 35 31 29 31 34 35 35 34 33 31 28 26 24 23 22 21 21 20 23 24 25 25 28 30 33
33 36 32 27 23 23 25 24 20 21 22 22 19 25 25 23 19 20 25 27 31 31 31 31 33 35 34 32 31 29 26 25 24 24 22 21 22 21 23 26 28 29 31 32 35
28 30 31 38 25 23 26 23 24 18 19 23 22 20 24 23 22 20 21 23 26 28 28 30 31 31 31 30 29 27 25 24 23 23 20 22 24 23 25 27 30 31 33 35 37
24 25 26 27 34 28 24 27 31 27 22 23 19 22 20 22 23 22 22 23 24 26 28 29 29 31 30 28 25 24 23 23 23 22 22 24 24 26 28 30 32 33 34 36 38
27 21 23 22 23 30 25 24 25 26 27 25 22 22 17 17 17 22 21 23 23 25 26 26 27 28 27 25 24 24 24 22 23 24 24 25 27 31 31 31 32 34 36 38 37
27 25 20 18 19 19 19 22 21 22 24 23 23 22 19 15 13 14 17 20 21 23 26 26 25 25 25 25 25 24 23 24 25 27 30 33 31 30 31 33 36 37 37 37 37
26 27 24 18 15 16 15 14 17 19 20 19 19 18 18 17 14 11 9 9 14 18 20 24 24 25 24 26 26 28 27 27 28 30 31 32 32 33 34 36 37 37 36 35 32
19 20 23 23 19 13 11 14 14 14 14 20 21 18 14 12 10 12 12 10 6 6 6 12 14 17 19 19 20 20 20 23 27 29 32 34 35 35 36 38 38 37 35 34 36
14 15 16 19 21 18 15 10 7 9 10 10 11 11 13 15 10 8 6 7 8 8 9 10 12 14 16 18 20 21 24 26 29 31 32 35 33 36 37 37 36 37 40 42 42
14 11 11 12 13 15 17 13 11 8 3 6 8 9 10 9 8 7 8 9 9 9 10 11 13 15 17 20 22 24 27 29 31 31 33 32 33 35 38 41 42 42 42 41 43
18 15 11 8 7 9 9 11 13 10 6 4 1 3 6 9 10 10 10 11 11 12 14 15 16 18 21 22 23 24 25 28 28 30 34 31 35 38 40 42 44 46 47 48 50
17 17 18 15 10 6 6 6 5 7 8 7 5 2 4 5 7 8 9 10 10 12 14 15 15 18 20 22 23 23 25 29 30 30 34 38 37 41 46 49 52 53 54 56 57
20 19 16 18 18 16 12 10 8 8 8 9 9 8 8 7 8 8 9 10 11 13 14 16 18 20 21 25 29 28 28 33 36 39 43 45 45 47 50 53 55 57 59 61 62
Wind_Direction
341 337 323 303 274 261 260 263 262 253 246 240 232 230 225 221 214 211 212 213 213 214 216 216 218 221 222 224 227 229 229 229 232 233 226 226 230 234 237 259 265 274 278 280 270
359 351 337 319 295 268 259 257 251 248 244 237 233 227 223 223 218 210 211 211 211 212 214 215 216 218 221 222 224 227 227 225 225 226 222 222 228 226 240 254 260 271 282 282 273
6 2 358 0 347 300 269 261 254 244 235 235 231 226 223 218 217 214 210 210 210 210 212 214 215 217 218 219 221 225 224 220 221 224 220 221 224 232 241 248 260 273 283 279 269
17 15 14 15 14 8 350 285 251 236 228 228 228 224 219 215 215 214 209 209 209 208 210 212 214 215 219 217 218 220 220 218 219 220 220 221 231 235 241 250 262 274 285 280 271
10 15 23 27 28 20 4 326 250 235 229 222 219 218 215 213 211 210 209 208 208 206 208 210 212 214 216 217 218 217 217 218 219 218 220 222 231 235 242 252 265 277 285 282 274
15 10 22 23 18 14 352 318 260 247 230 221 219 216 211 209 206 206 205 206 206 206 206 207 209 211 212 214 218 216 215 219 220 220 222 224 231 241 250 258 268 276 283 276 273
18 13 3 351 1 4 353 333 261 263 241 218 214 217 213 205 201 202 199 200 202 204 205 205 206 208 210 214 216 215 213 215 219 222 224 227 232 242 254 266 271 274 274 272 272
18 19 11 10 4 13 20 21 31 37 199 209 202 209 211 201 195 195 193 194 197 202 201 202 204 205 208 212 213 213 215 216 218 223 228 234 237 248 258 265 271 275 270 271 272
25 25 27 27 25 21 27 33 13 6 39 204 189 194 200 194 191 191 186 188 188 192 199 200 200 202 207 209 211 212 216 217 219 225 231 239 245 252 258 263 267 270 273 274 272
27 22 25 31 31 28 31 33 37 41 3 142 170 176 186 187 184 186 183 184 184 185 189 197 199 201 205 205 212 213 213 217 220 226 233 241 245 252 257 261 264 266 270 271 271
25 26 30 34 39 39 34 30 29 36 40 98 156 141 172 173 177 179 179 181 182 181 185 192 195 199 198 199 204 205 209 213 218 226 234 240 246 251 257 262 262 265 267 268 271
22 31 38 47 47 48 48 41 42 48 51 80 157 129 147 155 169 171 174 178 182 180 181 187 191 193 193 195 197 201 209 211 217 222 229 238 241 250 255 253 258 263 264 266 270
23 29 43 49 48 46 47 47 56 60 62 84 120 123 141 150 160 165 171 172 178 181 180 183 187 188 191 192 193 199 205 209 215 222 227 234 239 251 247 248 256 262 266 269 273
28 27 41 48 47 45 48 50 50 59 70 68 89 108 152 149 151 160 169 174 181 180 181 184 185 187 187 191 192 199 201 206 211 220 226 233 238 244 249 250 252 258 266 271 273
31 30 34 42 39 41 51 50 55 61 73 79 82 91 101 124 144 153 164 173 176 183 186 186 183 184 185 189 191 195 197 202 211 222 228 234 238 235 249 255 259 262 264 267 271
35 36 38 33 42 47 49 46 50 67 77 79 88 97 103 108 127 150 154 167 175 177 179 180 181 180 183 187 188 193 199 206 214 223 229 232 241 235 245 254 261 266 269 274 278
38 42 40 44 47 52 49 49 63 62 81 85 85 92 110 115 120 130 145 155 167 170 173 175 178 181 185 185 187 193 202 211 218 226 232 235 243 248 247 254 261 267 273 277 283
31 40 47 44 45 53 64 67 65 63 84 87 95 110 106 118 122 132 140 148 158 166 169 174 178 180 182 185 191 199 206 214 222 228 233 238 245 253 257 260 264 271 275 278 278
24 28 43 52 50 55 66 75 72 68 73 67 89 75 91 107 119 133 141 149 160 164 168 176 178 182 184 190 196 203 210 220 228 233 239 245 250 254 263 270 274 276 277 279 284
25 23 27 43 60 64 67 68 74 84 80 80 78 84 80 85 108 130 145 156 163 168 171 176 180 185 191 196 201 209 217 228 235 238 240 245 257 271 275 277 277 280 284 288 290
27 26 15 23 38 65 72 73 75 80 96 92 91 86 81 89 86 92 115 144 169 176 182 185 189 194 197 206 213 219 225 234 243 250 258 264 269 274 278 280 282 285 288 291 288
22 29 31 24 22 27 51 77 84 92 98 101 107 106 108 90 96 106 117 116 109 158 199 211 213 218 223 228 234 240 245 253 258 261 267 273 277 285 285 285 286 289 289 286 286
4 15 25 28 34 23 24 34 69 97 114 118 119 121 131 136 139 121 130 148 158 174 191 203 217 222 229 233 240 247 252 260 265 269 275 279 285 284 284 285 287 288 287 285 284
340 347 4 12 25 29 29 28 32 34 74 136 139 145 152 156 162 170 182 186 195 210 220 229 235 245 250 254 256 261 266 270 274 280 279 281 283 284 287 285 285 284 283 285 285
324 322 326 332 351 1 21 17 22 32 31 31 26 200 195 194 193 197 203 210 218 224 230 231 234 241 247 252 257 260 265 269 272 273 275 278 277 279 282 285 288 289 288 290 291
319 315 307 304 301 303 320 332 347 350 353 3 360 299 253 234 221 222 218 221 228 234 238 240 242 250 256 260 261 259 266 272 278 281 283 285 289 287 289 290 289 289 290 290 291
309 307 310 295 292 286 282 286 290 294 296 296 296 297 292 281 274 265 259 260 261 260 262 268 272 272 275 279 280 282 283 285 287 287 286 287 287 288 287 287 288 288 290 291 291
Height
5681 5675 5670 5666 5665 5665 5667 5668 5669 5670 5673 5676 5681 5686 5691 5697 5706 5720 5736 5747 5759 5771 5782 5792 5802 5810 5819 5826 5833 5839 5846 5852 5855 5858 5865 5867 5870 5873 5875 5876 5878 5877 5876 5877 5876
5680 5673 5666 5660 5657 5658 5659 5661 5662 5663 5665 5669 5673 5678 5684 5690 5699 5712 5723 5736 5748 5761 5772 5784 5793 5803 5812 5820 5827 5833 5841 5847 5849 5855 5860 5863 5867 5869 5872 5873 5874 5874 5873 5874 5873
5680 5672 5663 5658 5654 5654 5655 5655 5656 5657 5660 5662 5666 5671 5677 5684 5693 5703 5711 5725 5737 5751 5763 5776 5785 5796 5805 5814 5822 5829 5836 5842 5846 5851 5857 5859 5862 5865 5868 5870 5871 5871 5871 5871 5870
5681 5673 5665 5660 5656 5654 5653 5652 5651 5652 5654 5657 5660 5666 5671 5678 5687 5692 5704 5716 5729 5743 5756 5768 5779 5789 5800 5809 5816 5824 5831 5837 5842 5848 5853 5855 5857 5862 5864 5866 5866 5867 5868 5867 5867
5683 5675 5668 5662 5659 5657 5654 5652 5650 5650 5650 5653 5656 5660 5666 5674 5681 5689 5700 5711 5724 5737 5749 5761 5773 5784 5794 5804 5811 5819 5827 5832 5837 5843 5848 5852 5853 5857 5860 5862 5863 5863 5863 5863 5863
5684 5677 5672 5667 5662 5658 5654 5651 5648 5647 5646 5648 5652 5657 5662 5670 5677 5686 5696 5706 5718 5731 5742 5754 5766 5776 5788 5797 5805 5815 5822 5827 5832 5839 5843 5847 5850 5853 5856 5857 5858 5859 5859 5859 5859
5686 5680 5673 5669 5664 5660 5653 5647 5643 5642 5642 5644 5648 5653 5659 5667 5674 5683 5692 5702 5713 5724 5737 5748 5759 5771 5782 5790 5799 5809 5816 5822 5828 5834 5839 5843 5847 5850 5851 5851 5853 5854 5854 5854 5854
5688 5680 5674 5669 5663 5656 5651 5645 5642 5641 5640 5641 5645 5649 5656 5663 5671 5679 5690 5700 5710 5721 5733 5745 5754 5765 5776 5785 5794 5804 5812 5817 5824 5830 5835 5839 5844 5845 5846 5846 5847 5847 5849 5850 5849
5692 5682 5675 5669 5664 5659 5653 5649 5646 5642 5640 5639 5642 5647 5654 5661 5669 5678 5687 5698 5708 5719 5730 5739 5750 5760 5771 5782 5792 5800 5808 5815 5821 5825 5831 5835 5839 5840 5841 5841 5842 5843 5844 5845 5844
5694 5686 5679 5672 5667 5663 5659 5655 5651 5645 5641 5637 5641 5649 5653 5661 5668 5678 5689 5699 5708 5716 5726 5737 5747 5758 5768 5779 5789 5797 5806 5813 5818 5822 5826 5830 5834 5834 5836 5837 5837 5839 5839 5840 5839
5698 5690 5683 5678 5674 5669 5663 5658 5656 5649 5641 5640 5646 5652 5654 5663 5671 5680 5690 5700 5709 5717 5727 5735 5747 5757 5767 5776 5785 5794 5800 5807 5812 5817 5821 5825 5829 5830 5831 5832 5833 5833 5835 5835 5834
5702 5695 5689 5684 5680 5675 5671 5666 5661 5657 5651 5650 5652 5657 5660 5669 5676 5685 5695 5705 5714 5722 5729 5739 5747 5756 5764 5773 5782 5790 5796 5804 5809 5814 5818 5821 5824 5825 5827 5828 5828 5828 5830 5830 5829
5707 5700 5696 5691 5686 5682 5678 5674 5670 5666 5663 5661 5661 5663 5669 5676 5681 5688 5697 5705 5715 5723 5731 5738 5748 5755 5764 5771 5780 5787 5794 5801 5807 5810 5813 5816 5819 5820 5823 5823 5823 5823 5823 5824 5823
5712 5706 5701 5697 5693 5688 5685 5681 5679 5677 5673 5672 5672 5674 5678 5681 5687 5693 5701 5711 5719 5725 5731 5739 5747 5755 5764 5771 5779 5786 5793 5799 5803 5806 5809 5811 5814 5815 5817 5818 5819 5818 5818 5817 5815
5718 5712 5706 5701 5698 5695 5691 5687 5686 5684 5682 5682 5682 5683 5684 5689 5695 5699 5705 5712 5721 5729 5736 5742 5748 5756 5764 5771 5778 5784 5790 5795 5799 5802 5804 5807 5809 5812 5812 5812 5812 5813 5812 5810 5808
5724 5719 5713 5707 5703 5700 5697 5695 5693 5692 5690 5690 5690 5691 5693 5696 5701 5705 5710 5717 5723 5729 5736 5743 5750 5757 5764 5770 5777 5782 5787 5792 5795 5797 5800 5802 5803 5807 5807 5807 5806 5806 5804 5802 5800
5730 5726 5721 5716 5711 5706 5704 5702 5701 5698 5699 5699 5699 5699 5700 5704 5707 5712 5717 5722 5728 5734 5740 5746 5753 5759 5765 5771 5775 5780 5784 5788 5791 5793 5796 5797 5798 5801 5802 5801 5801 5799 5797 5794 5793
5736 5732 5727 5723 5720 5714 5712 5710 5708 5707 5706 5706 5707 5707 5710 5711 5714 5719 5723 5727 5732 5738 5744 5749 5755 5760 5766 5770 5775 5778 5782 5785 5786 5789 5791 5792 5793 5794 5795 5795 5794 5792 5790 5788 5785
5742 5738 5733 5730 5726 5723 5721 5718 5717 5715 5715 5715 5715 5715 5717 5720 5722 5724 5728 5732 5737 5741 5747 5752 5756 5760 5765 5769 5773 5776 5779 5782 5783 5784 5785 5786 5788 5787 5786 5786 5785 5784 5781 5778 5777
5747 5743 5739 5736 5733 5730 5729 5725 5724 5723 5722 5722 5724 5725 5726 5728 5730 5731 5734 5737 5741 5745 5748 5753 5757 5760 5764 5767 5770 5773 5776 5778 5778 5778 5778 5778 5779 5780 5779 5779 5776 5773 5772 5770 5767
5751 5748 5745 5741 5739 5736 5734 5732 5730 5728 5728 5729 5730 5731 5733 5734 5736 5738 5740 5742 5744 5747 5750 5753 5757 5761 5763 5765 5767 5769 5770 5771 5772 5771 5771 5772 5773 5772 5771 5769 5767 5765 5763 5761 5758
5755 5753 5750 5747 5744 5741 5739 5736 5735 5734 5734 5734 5735 5735 5737 5738 5740 5741 5743 5746 5748 5750 5753 5755 5757 5759 5761 5763 5765 5766 5767 5767 5767 5768 5766 5765 5766 5764 5762 5759 5757 5755 5753 5750 5748
5757 5755 5752 5750 5748 5746 5743 5741 5740 5739 5738 5738 5738 5740 5740 5741 5742 5744 5746 5748 5749 5751 5753 5755 5758 5759 5761 5762 5762 5763 5763 5763 5762 5761 5761 5759 5760 5755 5753 5751 5749 5746 5743 5739 5736
5758 5756 5754 5751 5749 5748 5747 5745 5743 5742 5741 5741 5741 5741 5742 5743 5744 5745 5746 5748 5749 5751 5753 5754 5756 5756 5757 5758 5758 5759 5758 5757 5755 5755 5753 5752 5749 5746 5744 5741 5738 5735 5732 5730 5727
5757 5755 5754 5752 5750 5749 5747 5747 5746 5745 5744 5743 5742 5742 5742 5742 5742 5743 5744 5745 5747 5748 5749 5750 5750 5750 5750 5751 5752 5752 5751 5749 5748 5747 5743 5745 5740 5737 5733 5730 5727 5723 5720 5717 5713
5755 5752 5752 5751 5749 5747 5747 5746 5745 5745 5745 5745 5744 5743 5742 5742 5742 5742 5742 5742 5744 5744 5744 5745 5746 5745 5744 5744 5745 5745 5744 5741 5740 5738 5735 5732 5732 5727 5724 5720 5715 5712 5708 5703 5699
5750 5750 5748 5747 5747 5746 5744 5744 5743 5742 5743 5742 5743 5743 5742 5742 5741 5740 5740 5740 5740 5740 5740 5740 5739 5739 5739 5737 5735 5737 5736 5733 5731 5728 5725 5723 5720 5717 5712 5708 5704 5699 5695 5691 5686